Weather History for Noatak, AK

Change the Weather History Date:

Tuesday, May 15, 2012

  Actual Average Record
Temperature  
Mean Temperature 26 °F -  
Max Temperature 33 °F 40 °F 59 °F (2004)
Min Temperature 19 °F 25 °F 15 °F (2013)
Degree Days  
Heating Degree Days 39    
Moisture  
Dew Point 21 °F    
Average Humidity 79    
Maximum Humidity 93    
Minimum Humidity 64    
Precipitation  
Precipitation 0.00 in - - ()
Sea Level Pressure  
Sea Level Pressure 30.26 in    
Wind  
Wind Speed 5 mph (South)    
Max Wind Speed 10 mph    
Max Gust Speed -    
Visibility 9 miles    
Events      
Averages and records for this station are not official NWS values.
T = Trace of Precipitation, MM = Missing Value Source: NWS Daily Summary

Daily Weather History Graph

Daily Weather History Graph

Search for Another Location

Airport:

Trip Planner

Search our weather history database for the weather conditions in past years. The results will help you decide how hot, cold, wet, or windy it might be!

Date:

Astronomy

May. 15, 2012 Rise Set
Actual Time 4:43 AM AKDT 12:57 AM AKDT
Civil Twilight Sun does not rise Sun does not rise
Nautical Twilight Sun does not rise Sun does not rise
Astronomical Twilight Sun does not rise Sun does not rise
Moon 4:26 AM AKDT (5/15) 6:05 PM AKDT (5/15)
Length of Visible Light 24h 00m
Length of Day
20h 13m
Waning Crescent, 22% of the Moon is Illuminated
May 15
Waning Crescent
May 20
New
May 28
First Quarter
Jun 4
Full
Jun 11
Last Quarter

Hourly Weather History & Observations

Time (AKDT) Temp. Windchill Dew Point Humidity Pressure Visibility Wind Dir Wind Speed Gust Speed Precip Events Conditions
12:16 AM 24.8 °F 19.1 °F 19.4 °F 80% 30.22 in 10.0 mi SSE 4.6 mph - N/A   Overcast
12:36 AM 24.8 °F 19.1 °F 19.4 °F 80% 30.22 in 10.0 mi WSW 4.6 mph - N/A   Overcast
12:56 AM 23.0 °F 15.8 °F 19.4 °F 86% 30.23 in 10.0 mi SW 5.8 mph - N/A   Overcast
1:16 AM 23.0 °F 14.7 °F 19.4 °F 86% 30.24 in 10.0 mi SSW 6.9 mph - N/A   Overcast
1:36 AM 23.0 °F 15.8 °F 19.4 °F 86% 30.24 in 10.0 mi SSW 5.8 mph - N/A   Overcast
1:56 AM 21.2 °F 11.7 °F 17.6 °F 86% 30.24 in 8.0 mi South 8.1 mph - N/A   Overcast
2:16 AM 21.2 °F 12.6 °F 17.6 °F 86% 30.25 in 10.0 mi SSW 6.9 mph - N/A   Overcast
2:36 AM 21.2 °F 13.6 °F 17.6 °F 86% 30.25 in 10.0 mi SSW 5.8 mph - N/A   Overcast
2:56 AM 19.4 °F 14.3 °F 17.6 °F 93% 30.25 in 10.0 mi SSW 3.5 mph - N/A   Overcast
3:16 AM 19.4 °F 14.3 °F 17.6 °F 93% 30.25 in 10.0 mi South 3.5 mph - N/A   Overcast
3:36 AM 19.4 °F 14.3 °F 15.8 °F 86% 30.25 in 10.0 mi SSW 3.5 mph - N/A   Overcast
3:56 AM 19.4 °F 14.3 °F 17.6 °F 93% 30.26 in 10.0 mi South 3.5 mph - N/A   Overcast
4:16 AM 21.2 °F - 17.6 °F 86% 30.26 in 10.0 mi Calm Calm - N/A   Overcast
4:36 AM 19.4 °F - 17.6 °F 93% 30.26 in 10.0 mi Calm Calm - N/A   Overcast
4:56 AM 21.2 °F - 17.6 °F 86% 30.26 in 10.0 mi Calm Calm - N/A   Overcast
5:16 AM 21.2 °F - 17.6 °F 86% 30.26 in 10.0 mi Calm Calm - N/A   Overcast
5:36 AM 21.2 °F - 17.6 °F 86% 30.26 in 10.0 mi Calm Calm - N/A   Overcast
5:56 AM 21.2 °F - 19.4 °F 93% 30.26 in 8.0 mi Calm Calm - N/A   Overcast
6:16 AM 21.2 °F - 19.4 °F 93% 30.26 in 1.2 mi Calm Calm - N/A   Overcast
6:36 AM 21.2 °F - 19.4 °F 93% 30.26 in 1.5 mi Calm Calm - N/A   Overcast
6:56 AM 21.2 °F - 19.4 °F 93% 30.26 in 1.8 mi Calm Calm - N/A   Overcast
7:16 AM 21.2 °F - 19.4 °F 93% 30.26 in 1.5 mi Calm Calm - N/A   Overcast
7:36 AM 21.2 °F - 19.4 °F 93% 30.26 in 2.5 mi Calm Calm - N/A   Overcast
7:56 AM 23.0 °F 18.4 °F 21.2 °F 93% 30.27 in 8.0 mi WSW 3.5 mph - N/A   Overcast
8:16 AM 23.0 °F 14.7 °F 19.4 °F 86% 30.26 in 10.0 mi South 6.9 mph - N/A   Overcast
8:36 AM 23.0 °F 15.8 °F 21.2 °F 93% 30.26 in 10.0 mi South 5.8 mph - N/A   Overcast
8:56 AM 23.0 °F 14.7 °F 19.4 °F 86% 30.27 in 10.0 mi SSE 6.9 mph - N/A   Overcast
9:16 AM 23.0 °F 15.8 °F 17.6 °F 80% 30.27 in 10.0 mi South 5.8 mph - N/A   Overcast
9:36 AM 23.0 °F 15.8 °F 19.4 °F 86% 30.27 in 10.0 mi SSW 5.8 mph - N/A   Overcast
9:56 AM 23.0 °F 17.0 °F 19.4 °F 86% 30.27 in 10.0 mi SW 4.6 mph - N/A   Overcast
10:16 AM 23.0 °F 17.0 °F 19.4 °F 86% 30.27 in 10.0 mi WSW 4.6 mph - N/A   Overcast
10:36 AM 24.8 °F 20.5 °F 19.4 °F 80% 30.27 in 10.0 mi West 3.5 mph - N/A   Overcast
10:56 AM 24.8 °F 17.9 °F 19.4 °F 80% 30.27 in 10.0 mi South 5.8 mph - N/A   Overcast
11:16 AM 26.6 °F 22.6 °F 21.2 °F 80% 30.27 in 10.0 mi SSE 3.5 mph - N/A   Overcast
11:36 AM 26.6 °F 18.2 °F 19.4 °F 74% 30.27 in 10.0 mi SSE 8.1 mph - N/A   Overcast
11:56 AM 26.6 °F 19.1 °F 19.4 °F 74% 30.27 in 10.0 mi SSE 6.9 mph - N/A   Overcast
12:16 PM 26.6 °F 19.1 °F 19.4 °F 74% 30.28 in 10.0 mi SSW 6.9 mph - N/A   Overcast
12:36 PM 28.4 °F 22.2 °F 19.4 °F 69% 30.27 in 10.0 mi SW 5.8 mph - N/A   Overcast
12:56 PM 28.4 °F 23.3 °F 19.4 °F 69% 30.27 in 10.0 mi SW 4.6 mph - N/A   Overcast
1:16 PM 28.4 °F 21.2 °F 21.2 °F 74% 30.27 in 10.0 mi SW 6.9 mph - N/A   Overcast
1:36 PM 30.2 °F 22.6 °F 19.4 °F 64% 30.27 in 10.0 mi SSE 8.1 mph - N/A   Overcast
1:56 PM 28.4 °F 20.4 °F 21.2 °F 74% 30.27 in 10.0 mi SSE 8.1 mph - N/A   Overcast
2:16 PM 30.2 °F 21.3 °F 21.2 °F 69% 30.27 in 10.0 mi South 10.4 mph - N/A   Overcast
2:36 PM 30.2 °F 21.3 °F 21.2 °F 69% 30.27 in 10.0 mi SSE 10.4 mph - N/A   Overcast
2:56 PM 30.2 °F 21.3 °F 21.2 °F 69% 30.27 in 10.0 mi SSE 10.4 mph - N/A   Overcast
3:16 PM 30.2 °F 22.6 °F 21.2 °F 69% 30.27 in 10.0 mi South 8.1 mph - N/A   Overcast
3:36 PM 30.2 °F 23.4 °F 21.2 °F 69% 30.27 in 10.0 mi SSE 6.9 mph - N/A   Overcast
3:56 PM 30.2 °F 21.3 °F 23.0 °F 75% 30.28 in 10.0 mi South 10.4 mph - N/A   Overcast
4:16 PM 30.2 °F 21.3 °F 23.0 °F 75% 30.27 in 10.0 mi South 10.4 mph - N/A   Overcast
4:36 PM 30.2 °F 21.3 °F 23.0 °F 75% 30.27 in 10.0 mi South 10.4 mph - N/A   Overcast
4:56 PM 30.2 °F 22.6 °F 23.0 °F 75% 30.27 in 10.0 mi South 8.1 mph - N/A   Overcast
5:16 PM 30.2 °F 21.3 °F 23.0 °F 75% 30.26 in 10.0 mi SSE 10.4 mph - N/A   Overcast
5:36 PM 32.0 °F 24.2 °F 23.0 °F 69% 30.26 in 10.0 mi South 9.2 mph - N/A   Overcast
5:56 PM 33.8 °F 27.0 °F 23.0 °F 65% 30.26 in 10.0 mi SSW 8.1 mph - N/A   Overcast
6:16 PM 32.0 °F 24.8 °F 24.8 °F 75% 30.26 in 10.0 mi South 8.1 mph - N/A   Overcast
6:36 PM 32.0 °F 25.6 °F 24.8 °F 75% 30.26 in 10.0 mi South 6.9 mph - N/A   Mostly Cloudy
6:56 PM 33.8 °F 27.7 °F 23.0 °F 65% 30.25 in 10.0 mi SSE 6.9 mph - N/A   Mostly Cloudy
7:16 PM 33.8 °F 27.7 °F 24.8 °F 70% 30.25 in 10.0 mi South 6.9 mph - N/A   Overcast
7:36 PM 33.8 °F 27.7 °F 24.8 °F 70% 30.25 in 10.0 mi South 6.9 mph - N/A   Overcast
7:56 PM 33.8 °F 27.7 °F 24.8 °F 70% 30.25 in 10.0 mi South 6.9 mph - N/A   Mostly Cloudy
8:16 PM 33.8 °F 27.7 °F 24.8 °F 70% 30.25 in 10.0 mi South 6.9 mph - N/A   Overcast
8:36 PM 33.8 °F 27.7 °F 24.8 °F 70% 30.25 in 10.0 mi South 6.9 mph - N/A   Overcast
8:56 PM 33.8 °F 27.7 °F 24.8 °F 70% 30.25 in 10.0 mi SSE 6.9 mph - N/A   Overcast
9:16 PM 33.8 °F 27.7 °F 24.8 °F 70% 30.25 in 10.0 mi SSE 6.9 mph - N/A   Overcast
9:36 PM 33.8 °F 29.6 °F 24.8 °F 70% 30.25 in 10.0 mi South 4.6 mph - N/A   Mostly Cloudy
9:56 PM 33.8 °F 27.7 °F 24.8 °F 70% 30.25 in 10.0 mi South 6.9 mph - N/A   Mostly Cloudy
10:16 PM 33.8 °F 30.8 °F 24.8 °F 70% 30.25 in 10.0 mi South 3.5 mph - N/A   Mostly Cloudy
10:36 PM 33.8 °F - 24.8 °F 70% 30.24 in 10.0 mi Calm Calm - N/A   Mostly Cloudy
10:56 PM 30.2 °F - 24.8 °F 80% 30.25 in 10.0 mi Calm Calm - N/A   Overcast
11:16 PM 28.4 °F 23.3 °F 24.8 °F 86% 30.25 in 10.0 mi North 4.6 mph - N/A   Overcast
11:36 PM 30.2 °F 26.7 °F 24.8 °F 80% 30.25 in 10.0 mi NNE 3.5 mph - N/A   Overcast
11:56 PM 30.2 °F 25.4 °F 24.8 °F 80% 30.25 in 10.0 mi North 4.6 mph - N/A   Overcast